Regional Weather Roundup
Issued by NWS

Home | Current Version | Previous Version | Graphics & Text | Print | Product List | Glossary On
Versions: 1 2 3 4 5 6 7 8 9 10 11 12 13 14 15 16 17 18 19 20 21 22 23 24 25 26 27 28 29 30 31 32 33 34 35 36 37 38 39 40 41 42 43 44 45 46 47 48 49 50
000
ASUS43 KMKX 301718
RWRWI

WISCONSIN REGIONAL WEATHER ROUNDUP
NATIONAL WEATHER SERVICE MILWAUKEE/SULLIVAN WI
1200 PM CDT SAT MAY 30 2015

NOTE: "FAIR" INDICATES FEW OR NO CLOUDS BELOW 12,000 FEET WITH NO
SIGNIFICANT WEATHER AND/OR OBSTRUCTIONS TO VISIBILITY.

WIZ001-002-006>008-014>016-023>028-301800-
NORTHWEST WISCONSIN

CITY           SKY/WX    TMP DP  RH WIND       PRES   REMARKS
SUPERIOR ARPT  SUNNY     52  37  55 E8        30.29S
ASHLAND        PTSUNNY   51  39  63 NE10G21   30.30R
HAYWARD        CLOUDY    50  39  66 NE13G20   30.26R
SIREN          CLOUDY    54  40  59 NE12G17   30.25S
CUMBERLAND     CLOUDY    50  41  71 N13       30.24R
RICE LAKE      CLOUDY    52  42  68 N14       30.25R
CHETEK         CLOUDY    51  44  76 N12       30.23R
LADYSMITH      CLOUDY    52  44  75 N14G21    30.24R
EAU CLAIRE     CLOUDY    55  45  68 N9        30.20R
MENOMONIE      CLOUDY    55  45  68 N15       30.22R
NEW RICHMOND   CLOUDY    54  44  67 N13G18    30.24R
OSCEOLA        CLOUDY    54  43  66 N8        30.28R
$$

WIZ003>005-009-010-017-018-301800-
NORTH CENTRAL WISCONSIN

CITY           SKY/WX    TMP DP  RH WIND       PRES   REMARKS
MANITOWISH WTR CLOUDY    45  44  95 N10G16    30.24R
ARBOR VITAE    CLOUDY    52  45  77 NE13      30.22R
WOODRUFF       CLOUDY    52  45  77 NE13      30.22R
RHINELANDER    CLOUDY    52  43  71 NE12G20   30.20R
EAGLE RIVER    LGT RAIN  47  44  91 NE12      30.22R
LAND O LAKES   CLOUDY    47  42  85 N12       30.24R
PHILLIPS       CLOUDY    49  44  83 N13       30.22R
TOMAHAWK       CLOUDY    52  47  84 NE6       30.20R
MEDFORD        CLOUDY    55  47  75 N14G21    30.18R
MERRILL        CLOUDY    55  47  74 E6        30.19R
$$

WIZ029-030-035-036-043>047-301800-
CENTRAL WISCONSIN

CITY           SKY/WX    TMP DP  RH WIND       PRES   REMARKS
WAUSAU         CLOUDY    56  45  66 NE10      30.16R
MOSINEE        CLOUDY    55  50  82 NE13G18   30.17R
MARSHFIELD     CLOUDY    57  48  72 NE12      30.16R
STEVENS POINT  CLOUDY    53  49  86 NE7       30.16S
WAUPACA        DRIZZLE   55  50  82 NE8       30.17R
WAUTOMA        LGT RAIN  53  51  93 NE15      30.16R
WISC RAPIDS    CLOUDY    55  49  80 NE10      30.17R
CAMP DOUGLAS   LGT RAIN  55  55 100 NE5       30.14R
$$

WIZ011>013-019>022-031-037>040-048>050-301800-
NORTHEAST WISCONSIN

CITY           SKY/WX    TMP DP  RH WIND       PRES   REMARKS
ANTIGO         CLOUDY    52  46  78 N15G21    30.18R
SHAWANO        CLOUDY    57  47  70 NE10      30.17R
OCONTO         CLOUDY    55  45  71 NE12      30.17R
STURGEON BAY   CLOUDY    50  41  71 N18       30.18R
GREEN BAY      LGT RAIN  52  48  86 N12       30.17R FOG
MANITOWOC      LGT RAIN  49  46  90 N9G17     30.15R
APPLETON       LGT RAIN  50  50 100 NE9       30.16R
CLINTONVILLE   CLOUDY    54  48  82 NE9       30.16S
OSHKOSH        LGT RAIN  51  45  79 NE20G26   30.15R
$$

WIZ032>034-041-042-053>061-301800-
SOUTHWEST WISCONSIN

CITY           SKY/WX    TMP DP  RH WIND       PRES   REMARKS
LA CROSSE      CLOUDY    58  51  78 N13       30.15R
SPARTA         CLOUDY    54  53  95 N8        30.16R FOG
VIROQUA        CLOUDY    55  55 100 NE13      30.13R
BOSCOBEL       CLOUDY    58  53  84 NE10G20   30.11R
PRAIRIE DU CHI CLOUDY    58  51  78 N9        30.11R
PLATTEVILLE    CLOUDY    58  55  91 NE17G25   30.07R
$$

WIZ056-057-062-063-064-067-068-301800-
SOUTH CENTRAL WISCONSIN

CITY           SKY/WX    TMP DP  RH WIND       PRES   REMARKS
REEDSBURG      DRIZZLE   53  51  95 NE10      30.13R
BARABOO/DELLS  DRIZZLE   52  49  92 NE13G22   30.13R
LONE ROCK      LGT RAIN  56  51  84 NE15      30.11S
MINERAL POINT  LGT RAIN  55  54  94 NE13G21   30.07R
MADISON        DRIZZLE   54  50  86 NE14G24   30.10R
MIDDLETON      CLOUDY    56  52  88 NE18G25   30.11R
WATERTOWN      RAIN     N/A N/A N/A NE10G20   30.10R
MONROE         LGT RAIN  54  52  94 NE17      30.06R
JANESVILLE     RAIN      54  52  94 NE16G22   30.07R FOG
$$

WIZ051-052-058>065-066-070>072-301800-
SOUTHEAST WISCONSIN

CITY           SKY/WX    TMP DP  RH WIND       PRES   REMARKS
MILWAUKEE      LGT RAIN  48  45  89 N23G33    30.10R FOG
WAUKESHA       RAIN      48  48 100 NE12G23   30.10R
MILWAUKEE/TIMM RAIN      48  45  87 NE21G30   30.11R
RACINE         LGT RAIN  48  45  89 N21G31    30.09R
BURLINGTON     LGT RAIN  49  47  95 NE15G22   30.08R
KENOSHA        RAIN      49  47  93 NE17G24   30.08R FOG
FOND DU LAC    LGT RAIN  51  49  92 NE17      30.14S FOG
SHEBOYGAN      RAIN      48  45  89 N18G28    30.14R FOG
WEST BEND      RAIN      48  45  87 N16       30.12R
JUNEAU         RAIN      50  48  95 N13G24    30.12R
$$

LSZ147-162-301800-
LAKE SUPERIOR

STATION/POSITION TIME  TEMP    WIND        PRES    WAVE
                       AIR SEA DIR/SP/G            HT/PER
                 (UTC) (F)     (DEG/KT/KT) (MB)    (FT/S)
W MID LAKE BUOY  1650   39 37   60/  8/ 10   N/A     2/ 4
DEVILS ISLAND    1700   42      50/  7/  8   N/A
PORT WING        1600   47      40/ 12/ 14   N/A
SAXON HARBOR     1640   44      50/ 11/ 13   N/A
$$

LMZ867-665-643>646-301800-
LAKE MICHIGAN

STATION/POSITION TIME  TEMP    WIND        PRES    WAVE
                       AIR SEA DIR/SP/G            HT/PER
                 (UTC) (F)     (DEG/KT/KT) (MB)    (FT/S)
CHAMBERS ISLAND  1600   51     360/ 17/ 20   N/A
N MID LAKE BUOY  1650   43 37  320/  8/ 10   N/A     2/ 4
NORTHPORT PIER   1500   49     350/ 18/ 22   N/A
SISTER BAY       1518   51     360/ 17/ 21   N/A
ALGOMA LAKESHORE 1608           30/  4/  7   N/A
KEWAUNEE LAKESHO 1600   47      30/  7/ 12   N/A
SHEBOYGAN LAKESH 1700   45      10/ 21/ 22   N/A
PORT WASHINGTON  1600   49      20/ 13/ 21   N/A
ATWATER BUOY     1600   48      20/ 23/ 27   N/A
MILWAUKEE LAKESH 1600   48      10/ 23/ 31   N/A
S MID LAKE BUOY  1650   41 38  330/ 10/ 12   N/A     1/ 3
KENOSHA   LAKESH 1700   46      10/ 26/ 31   N/A
$$

TC  - TEMPERATURE IN CELSIUS
VSB - VISIBILITY IN STATUTE MILES
WCI - WIND CHILL INDEX
HX  - HEAT INDEX



USA.gov is the U.S. government's official web portal to all federal, state and local government web resources and services.